Portada
METAR-TAF:

METAR-TAF

Aeroports :

Kingaroy, Austràlia

latitud: 26-34-48S, longitud: 151-50-30E, altitud: 455 m

Observació

L'informe es va fer fa 56 minuts, a les 09:00 UTC
Vent 11 kt del Est/Sud-Est
Temperatura 18°C
Humitat 59%
Pressió 1022 hPa
Visibilitat 10 km o més
Cel cobert a una alçada de 9900 ft

METAR: YKRY 240900Z AUTO 11011KT 9999 // OVC099 18/10 Q1022

Hora: 19:56 (09:56 UTC)


TAF: manca

Observacions i pronòstics meteorològics de més de 4000 aeroports (METAR i TAF).

Les estacions disponibles són els punts grocs i vermells al mapa.

Posi el ratolí al punt desitjat per veure el nom de l'estació.

Feu clic per veure les observacions i els pronòstics meteorològics.

Per canviar el mapa: feu clic els botons verds amb una creu de color negre per apropar; al botó verd amb un guió per allunyar la imatge; o en les fletxes verdes per a mapes adjacents.


METAR-TAF: